owner,sensor,date,latitude,longitude,vertical_datum,sea_water_temperature,qcFlag
ATP,ioos:station:wmo:42869:1,2020-03-01T00:01:00Z,26.6634,-91.5568,7.3,22.1,11111222
ATP,ioos:station:wmo:42869:1,2020-03-01T00:11:00Z,26.6634,-91.5567,7.2,22.1,11111222
ATP,ioos:station:wmo:42869:1,2020-03-01T00:21:00Z,26.6635,-91.5563,7.1,22.1,11111222
ATP,ioos:station:wmo:42869:1,2020-03-01T00:31:00Z,26.6634,-91.5566,7.3,22.0,11111222
ATP,ioos:station:wmo:42869:1,2020-03-01T00:41:00Z,26.6628,-91.5570,7.2,22.0,11111222
ATP,ioos:station:wmo:42869:1,2020-03-01T00:51:00Z,26.6632,-91.5568,7.3,22.1,11111222
ATP,ioos:station:wmo:42869:1,2020-03-01T01:01:00Z,26.6631,-91.5569,7.1,22.0,11111222
ATP,ioos:station:wmo:42869:1,2020-03-01T01:11:00Z,26.6632,-91.5568,7.0,22.0,11111222
ATP,ioos:station:wmo:42869:1,2020-03-01T01:21:00Z,26.6633,-91.5567,7.1,21.9,11111222
ATP,ioos:station:wmo:42869:1,2020-03-01T01:31:00Z,26.6633,-91.5567,7.1,22.0,11111222
ATP,ioos:station:wmo:42869:1,2020-03-01T01:41:00Z,26.6631,-91.5571,7.1,22.0,11111222
ATP,ioos:station:wmo:42869:1,2020-03-01T01:51:00Z,26.6632,-91.5570,7.1,21.9,11111222
ATP,ioos:station:wmo:42869:1,2020-03-01T02:01:00Z,26.6632,-91.5555,7.2,21.9,11111222
ATP,ioos:station:wmo:42869:1,2020-03-01T02:11:00Z,26.6632,-91.5560,6.9,21.9,11111222
ATP,ioos:station:wmo:42869:1,2020-03-01T02:21:00Z,26.6635,-91.5572,7.0,21.9,11111222
ATP,ioos:station:wmo:42869:1,2020-03-01T02:31:00Z,26.6633,-91.5568,7.0,21.8,11111222
ATP,ioos:station:wmo:42869:1,2020-03-01T02:41:00Z,26.6632,-91.5568,7.0,21.9,11111222
ATP,ioos:station:wmo:42869:1,2020-03-01T02:51:00Z,26.6633,-91.5568,6.8,21.8,11111222
ATP,ioos:station:wmo:42869:1,2020-03-01T03:01:00Z,26.6634,-91.5569,6.9,21.8,11111222
ATP,ioos:station:wmo:42869:1,2020-03-01T03:11:00Z,26.6632,-91.5569,6.9,21.8,11111222
ATP,ioos:station:wmo:42869:1,2020-03-01T03:21:00Z,26.6634,-91.5567,6.6,21.8,11111222
ATP,ioos:station:wmo:42869:1,2020-03-01T03:31:00Z,26.6629,-91.5569,6.9,21.8,11111222
ATP,ioos:station:wmo:42869:1,2020-03-01T03:41:00Z,26.6630,-91.5568,6.8,21.8,11111222
ATP,ioos:station:wmo:42869:1,2020-03-01T03:51:00Z,26.6632,-91.5566,6.8,21.8,11111222
ATP,ioos:station:wmo:42869:1,2020-03-01T04:01:00Z,26.6632,-91.5568,6.9,21.8,11111222
ATP,ioos:station:wmo:42869:1,2020-03-01T04:11:00Z,26.6632,-91.5568,6.8,21.7,11111222
ATP,ioos:station:wmo:42869:1,2020-03-01T04:21:00Z,26.6633,-91.5566,6.8,21.7,11111222
ATP,ioos:station:wmo:42869:1,2020-03-01T04:31:00Z,26.6630,-91.5583,6.8,21.7,11111222
ATP,ioos:station:wmo:42869:1,2020-03-01T04:41:00Z,26.6632,-91.5567,6.9,21.7,11111222
ATP,ioos:station:wmo:42869:1,2020-03-01T04:51:00Z,26.6632,-91.5569,6.8,21.7,11111222
ATP,ioos:station:wmo:42869:1,2020-03-01T05:01:00Z,26.6631,-91.5566,6.9,21.7,11111222
ATP,ioos:station:wmo:42869:1,2020-03-01T05:11:00Z,26.6631,-91.5565,6.8,21.7,11111222
ATP,ioos:station:wmo:42869:1,2020-03-01T05:21:00Z,26.6632,-91.5569,6.9,21.7,11111222
ATP,ioos:station:wmo:42869:1,2020-03-01T05:31:00Z,26.6632,-91.5569,6.9,21.7,11111222
ATP,ioos:station:wmo:42869:1,2020-03-01T05:41:00Z,26.6632,-91.5568,6.9,21.7,11111222
ATP,ioos:station:wmo:42869:1,2020-03-01T05:51:00Z,26.6632,-91.5568,6.8,21.7,11111222
ATP,ioos:station:wmo:42869:1,2020-03-01T06:01:00Z,26.6633,-91.5569,6.8,21.7,11111222
ATP,ioos:station:wmo:42869:1,2020-03-01T06:11:00Z,26.6632,-91.5567,6.8,21.7,11111222
ATP,ioos:station:wmo:42869:1,2020-03-01T06:21:00Z,26.6633,-91.5568,6.8,21.7,11111222
ATP,ioos:station:wmo:42869:1,2020-03-01T06:31:00Z,26.6633,-91.5569,6.9,21.7,11111222
ATP,ioos:station:wmo:42869:1,2020-03-01T06:41:00Z,26.6632,-91.5569,7.0,21.7,11111222
ATP,ioos:station:wmo:42869:1,2020-03-01T06:51:00Z,26.6631,-91.5568,6.8,21.7,11111222
ATP,ioos:station:wmo:42869:1,2020-03-01T07:01:00Z,26.6633,-91.5565,6.8,21.7,11111222
ATP,ioos:station:wmo:42869:1,2020-03-01T07:11:00Z,26.6630,-91.5564,6.9,21.7,11111222
ATP,ioos:station:wmo:42869:1,2020-03-01T07:21:00Z,26.6631,-91.5564,6.8,21.7,11111222
ATP,ioos:station:wmo:42869:1,2020-03-01T07:31:00Z,26.6633,-91.5565,6.8,21.6,11111222
ATP,ioos:station:wmo:42869:1,2020-03-01T07:41:00Z,26.6632,-91.5565,6.9,21.6,11111222
ATP,ioos:station:wmo:42869:1,2020-03-01T07:51:00Z,26.6633,-91.5568,6.8,21.6,11111222
ATP,ioos:station:wmo:42869:1,2020-03-01T08:01:00Z,26.6635,-91.5568,6.8,21.6,11111222
ATP,ioos:station:wmo:42869:1,2020-03-01T08:11:00Z,26.6633,-91.5567,6.8,21.6,11111222
ATP,ioos:station:wmo:42869:1,2020-03-01T08:21:00Z,26.6633,-91.5568,6.8,21.6,11111222
ATP,ioos:station:wmo:42869:1,2020-03-01T08:31:00Z,26.6632,-91.5568,6.9,21.6,11111222
ATP,ioos:station:wmo:42869:1,2020-03-01T08:41:00Z,26.6632,-91.5566,7.0,21.6,11111222
ATP,ioos:station:wmo:42869:1,2020-03-01T08:51:00Z,26.6633,-91.5566,6.9,21.6,11111222
ATP,ioos:station:wmo:42869:1,2020-03-01T09:01:00Z,26.6633,-91.5566,6.9,21.6,11111222
ATP,ioos:station:wmo:42869:1,2020-03-01T09:11:00Z,26.6632,-91.5568,6.9,21.6,11111222
ATP,ioos:station:wmo:42869:1,2020-03-01T09:21:00Z,26.6630,-91.5571,6.8,21.6,11111222
ATP,ioos:station:wmo:42869:1,2020-03-01T09:31:00Z,26.6632,-91.5569,6.8,21.6,11111222
ATP,ioos:station:wmo:42869:1,2020-03-01T09:41:00Z,26.6624,-91.5578,7.0,21.6,11111222
ATP,ioos:station:wmo:42869:1,2020-03-01T09:51:00Z,26.6621,-91.5577,7.0,21.6,11111222
ATP,ioos:station:wmo:42869:1,2020-03-01T10:01:00Z,26.6634,-91.5566,7.0,21.6,11111222
ATP,ioos:station:wmo:42869:1,2020-03-01T10:11:00Z,26.6633,-91.5567,6.8,21.6,11111222
ATP,ioos:station:wmo:42869:1,2020-03-01T10:21:00Z,26.6632,-91.5569,7.0,21.6,11111222
ATP,ioos:station:wmo:42869:1,2020-03-01T10:31:00Z,26.6633,-91.5568,6.8,21.7,11111222
ATP,ioos:station:wmo:42869:1,2020-03-01T10:41:00Z,26.6632,-91.5568,6.9,21.7,11111222
ATP,ioos:station:wmo:42869:1,2020-03-01T10:51:00Z,26.6633,-91.5569,6.7,21.6,11111222
ATP,ioos:station:wmo:42869:1,2020-03-01T11:01:00Z,26.6633,-91.5567,6.9,21.7,11111222
ATP,ioos:station:wmo:42869:1,2020-03-01T11:11:00Z,26.6632,-91.5565,6.9,21.7,11111222
ATP,ioos:station:wmo:42869:1,2020-03-01T11:21:00Z,26.6634,-91.5566,7.0,21.6,11111222
ATP,ioos:station:wmo:42869:1,2020-03-01T11:31:00Z,26.6632,-91.5568,6.8,21.6,11111222
ATP,ioos:station:wmo:42869:1,2020-03-01T11:41:00Z,26.6632,-91.5567,6.8,21.6,11111222
ATP,ioos:station:wmo:42869:1,2020-03-01T11:51:00Z,26.6634,-91.5567,7.0,21.6,11111222
ATP,ioos:station:wmo:42869:1,2020-03-01T12:01:00Z,26.6633,-91.5569,6.8,21.6,11111222
ATP,ioos:station:wmo:42869:1,2020-03-01T12:11:00Z,26.6632,-91.5571,6.9,21.6,11111222
ATP,ioos:station:wmo:42869:1,2020-03-01T12:21:00Z,26.6633,-91.5569,6.9,21.6,11111222
ATP,ioos:station:wmo:42869:1,2020-03-01T12:31:00Z,26.6634,-91.5563,6.8,21.6,11111222
ATP,ioos:station:wmo:42869:1,2020-03-01T12:41:00Z,26.6633,-91.5561,6.9,21.6,11111222
ATP,ioos:station:wmo:42869:1,2020-03-01T12:51:00Z,26.6632,-91.5569,6.8,21.6,11111222
ATP,ioos:station:wmo:42869:1,2020-03-01T13:01:00Z,26.6632,-91.5568,6.8,21.6,11111222
ATP,ioos:station:wmo:42869:1,2020-03-01T13:11:00Z,26.6632,-91.5568,6.9,21.6,11111222
ATP,ioos:station:wmo:42869:1,2020-03-01T13:21:00Z,26.6633,-91.5569,6.9,21.6,11111222
ATP,ioos:station:wmo:42869:1,2020-03-01T13:31:00Z,26.6632,-91.5568,6.9,21.6,11111222
ATP,ioos:station:wmo:42869:1,2020-03-01T13:41:00Z,26.6633,-91.5568,6.7,21.6,11111222
ATP,ioos:station:wmo:42869:1,2020-03-01T13:51:00Z,26.6632,-91.5568,6.9,21.6,11111222
ATP,ioos:station:wmo:42869:1,2020-03-01T14:01:00Z,26.6632,-91.5568,6.9,21.6,11111222
ATP,ioos:station:wmo:42869:1,2020-03-01T14:11:00Z,26.6632,-91.5560,7.0,21.6,11111222
ATP,ioos:station:wmo:42869:1,2020-03-01T14:21:00Z,26.6632,-91.5569,6.9,21.6,11111222
ATP,ioos:station:wmo:42869:1,2020-03-01T14:31:00Z,26.6632,-91.5569,6.7,21.6,11111222
ATP,ioos:station:wmo:42869:1,2020-03-01T14:41:00Z,26.6632,-91.5569,6.9,21.6,11111222
ATP,ioos:station:wmo:42869:1,2020-03-01T14:51:00Z,26.6633,-91.5570,6.9,21.6,11111222
ATP,ioos:station:wmo:42869:1,2020-03-01T15:01:00Z,26.6632,-91.5565,6.8,21.6,11111222
ATP,ioos:station:wmo:42869:1,2020-03-01T15:11:00Z,26.6633,-91.5571,7.0,21.6,11111222
ATP,ioos:station:wmo:42869:1,2020-03-01T15:21:00Z,26.6631,-91.5569,6.9,21.6,11111222
ATP,ioos:station:wmo:42869:1,2020-03-01T15:31:00Z,26.6633,-91.5568,6.9,21.6,11111222
ATP,ioos:station:wmo:42869:1,2020-03-01T15:41:00Z,26.6633,-91.5566,6.9,21.6,11111222
ATP,ioos:station:wmo:42869:1,2020-03-01T15:51:00Z,26.6632,-91.5567,6.7,21.6,11111222
ATP,ioos:station:wmo:42869:1,2020-03-01T16:01:00Z,26.6633,-91.5565,7.0,21.7,11111222
ATP,ioos:station:wmo:42869:1,2020-03-01T16:11:00Z,26.6634,-91.5567,6.9,21.7,11111222
ATP,ioos:station:wmo:42869:1,2020-03-01T16:21:00Z,26.6632,-91.5567,6.8,21.7,11111222
ATP,ioos:station:wmo:42869:1,2020-03-01T16:31:00Z,26.6632,-91.5569,6.8,21.7,11111222
ATP,ioos:station:wmo:42869:1,2020-03-01T16:41:00Z,26.6633,-91.5568,6.8,21.6,11111222
ATP,ioos:station:wmo:42869:1,2020-03-01T16:51:00Z,26.6633,-91.5569,6.8,21.7,11111222
ATP,ioos:station:wmo:42869:1,2020-03-01T17:01:00Z,26.6632,-91.5569,6.8,21.7,11111222
ATP,ioos:station:wmo:42869:1,2020-03-01T17:11:00Z,26.6631,-91.5569,6.8,21.7,11111222
ATP,ioos:station:wmo:42869:1,2020-03-01T17:21:00Z,26.6632,-91.5568,6.8,21.7,11111222
ATP,ioos:station:wmo:42869:1,2020-03-01T17:31:00Z,26.6630,-91.5569,6.9,21.7,11111222
ATP,ioos:station:wmo:42869:1,2020-03-01T17:41:00Z,26.6632,-91.5569,6.7,21.7,11111222
ATP,ioos:station:wmo:42869:1,2020-03-01T17:51:00Z,26.6632,-91.5569,6.8,21.7,11111222
ATP,ioos:station:wmo:42869:1,2020-03-01T18:01:00Z,26.6632,-91.5569,6.7,21.8,11111222
ATP,ioos:station:wmo:42869:1,2020-03-01T18:11:00Z,26.6632,-91.5569,6.8,21.8,11111222
ATP,ioos:station:wmo:42869:1,2020-03-01T18:21:00Z,26.6631,-91.5568,6.7,21.8,11111222
ATP,ioos:station:wmo:42869:1,2020-03-01T18:31:00Z,26.6632,-91.5568,6.9,21.8,11111222
ATP,ioos:station:wmo:42869:1,2020-03-01T18:41:00Z,26.6631,-91.5567,6.9,21.8,11111222
ATP,ioos:station:wmo:42869:1,2020-03-01T18:51:00Z,26.6632,-91.5567,6.9,21.8,11111222
ATP,ioos:station:wmo:42869:1,2020-03-01T19:01:00Z,26.6632,-91.5567,6.8,21.8,11111222
ATP,ioos:station:wmo:42869:1,2020-03-01T19:11:00Z,26.6632,-91.5567,6.9,21.8,11111222
ATP,ioos:station:wmo:42869:1,2020-03-01T19:21:00Z,26.6631,-91.5564,6.8,21.8,11111222
ATP,ioos:station:wmo:42869:1,2020-03-01T19:31:00Z,26.6633,-91.5568,6.9,21.8,11111222
ATP,ioos:station:wmo:42869:1,2020-03-01T19:41:00Z,26.6633,-91.5567,7.0,21.8,11111222
ATP,ioos:station:wmo:42869:1,2020-03-01T19:51:00Z,26.6633,-91.5569,6.8,21.8,11111222
ATP,ioos:station:wmo:42869:1,2020-03-01T20:01:00Z,26.6632,-91.5569,6.9,21.8,11111222
ATP,ioos:station:wmo:42869:1,2020-03-01T20:11:00Z,26.6632,-91.5568,6.7,21.8,11111222
ATP,ioos:station:wmo:42869:1,2020-03-01T20:21:00Z,26.6633,-91.5566,6.7,21.8,11111222
ATP,ioos:station:wmo:42869:1,2020-03-01T20:31:00Z,26.6633,-91.5567,6.9,21.8,11111222
ATP,ioos:station:wmo:42869:1,2020-03-01T20:41:00Z,26.6632,-91.5570,6.8,21.8,11111222
ATP,ioos:station:wmo:42869:1,2020-03-01T20:51:00Z,26.6633,-91.5569,6.8,21.8,11111222
ATP,ioos:station:wmo:42869:1,2020-03-01T21:01:00Z,26.6632,-91.5568,6.9,21.8,11111222
ATP,ioos:station:wmo:42869:1,2020-03-01T21:11:00Z,26.6632,-91.5569,7.1,21.9,11111222
ATP,ioos:station:wmo:42869:1,2020-03-01T21:21:00Z,26.6631,-91.5569,7.2,21.9,11111222
ATP,ioos:station:wmo:42869:1,2020-03-01T21:31:00Z,26.6632,-91.5568,7.1,21.9,11111222
ATP,ioos:station:wmo:42869:1,2020-03-01T21:41:00Z,26.6631,-91.5569,7.2,21.9,11111222
ATP,ioos:station:wmo:42869:1,2020-03-01T21:51:00Z,26.6633,-91.5568,7.2,21.9,11111222
ATP,ioos:station:wmo:42869:1,2020-03-01T22:01:00Z,26.6633,-91.5568,7.0,21.9,11111222
ATP,ioos:station:wmo:42869:1,2020-03-01T22:11:00Z,26.6630,-91.5569,7.3,21.9,11111222
ATP,ioos:station:wmo:42869:1,2020-03-01T22:21:00Z,26.6632,-91.5568,7.2,21.9,11111222
ATP,ioos:station:wmo:42869:1,2020-03-01T22:31:00Z,26.6633,-91.5568,7.1,21.9,11111222
ATP,ioos:station:wmo:42869:1,2020-03-01T22:41:00Z,26.6633,-91.5567,7.2,21.9,11111222
ATP,ioos:station:wmo:42869:1,2020-03-01T22:51:00Z,26.6633,-91.5567,7.1,21.9,11111222
ATP,ioos:station:wmo:42869:1,2020-03-01T23:01:00Z,26.6632,-91.5568,7.1,21.9,11111222
ATP,ioos:station:wmo:42869:1,2020-03-01T23:11:00Z,26.6632,-91.5571,7.2,21.9,11111222
ATP,ioos:station:wmo:42869:1,2020-03-01T23:21:00Z,26.6631,-91.5563,7.2,21.9,11111222
ATP,ioos:station:wmo:42869:1,2020-03-01T23:31:00Z,26.6634,-91.5575,7.2,21.9,11111222
ATP,ioos:station:wmo:42869:1,2020-03-01T23:41:00Z,26.6634,-91.5569,7.1,21.9,11111222
ATP,ioos:station:wmo:42869:1,2020-03-01T23:51:00Z,26.6633,-91.5568,7.1,21.9,11111222
ATP,ioos:station:wmo:42869:1,2020-03-02T00:01:00Z,26.6634,-91.5567,7.1,21.9,11111222
ATP,ioos:station:wmo:42869:1,2020-03-02T00:11:00Z,26.6633,-91.5568,7.1,21.9,11111222
ATP,ioos:station:wmo:42869:1,2020-03-02T00:21:00Z,26.6633,-91.5567,6.9,21.9,11111222
ATP,ioos:station:wmo:42869:1,2020-03-02T00:31:00Z,26.6634,-91.5567,6.9,21.8,11111222
ATP,ioos:station:wmo:42869:1,2020-03-02T00:41:00Z,26.6633,-91.5568,6.9,21.8,11111222
ATP,ioos:station:wmo:42869:1,2020-03-02T00:51:00Z,26.6632,-91.5568,6.9,21.8,11111222
ATP,ioos:station:wmo:42869:1,2020-03-02T01:01:00Z,26.6634,-91.5567,6.8,21.8,11111222
ATP,ioos:station:wmo:42869:1,2020-03-02T01:11:00Z,26.6634,-91.5568,6.9,21.8,11111222
ATP,ioos:station:wmo:42869:1,2020-03-02T01:21:00Z,26.6633,-91.5567,7.1,21.9,11111222
ATP,ioos:station:wmo:42869:1,2020-03-02T01:31:00Z,26.6631,-91.5568,7.1,21.9,11111222
ATP,ioos:station:wmo:42869:1,2020-03-02T01:41:00Z,26.6631,-91.5568,7.1,22.0,11111222
ATP,ioos:station:wmo:42869:1,2020-03-02T01:51:00Z,26.6633,-91.5569,7.1,22.1,11111222
ATP,ioos:station:wmo:42869:1,2020-03-02T02:01:00Z,26.6632,-91.5558,7.1,22.1,11111222
ATP,ioos:station:wmo:42869:1,2020-03-02T02:11:00Z,26.6632,-91.5566,7.1,22.2,11111222
ATP,ioos:station:wmo:42869:1,2020-03-02T02:21:00Z,26.6635,-91.5572,7.1,22.2,11111222
ATP,ioos:station:wmo:42869:1,2020-03-02T02:31:00Z,26.6632,-91.5569,7.3,22.2,11111222
ATP,ioos:station:wmo:42869:1,2020-03-02T02:41:00Z,26.6632,-91.5567,7.1,22.3,11111222
ATP,ioos:station:wmo:42869:1,2020-03-02T02:51:00Z,26.6635,-91.5571,7.1,22.3,11111222
ATP,ioos:station:wmo:42869:1,2020-03-02T03:01:00Z,26.6625,-91.5563,7.1,22.3,11111222
ATP,ioos:station:wmo:42869:1,2020-03-02T03:11:00Z,26.6632,-91.5569,7.1,22.3,11111222
ATP,ioos:station:wmo:42869:1,2020-03-02T03:21:00Z,26.6633,-91.5567,7.3,22.3,11111222
ATP,ioos:station:wmo:42869:1,2020-03-02T03:31:00Z,26.6632,-91.5568,7.1,22.3,11111222
ATP,ioos:station:wmo:42869:1,2020-03-02T03:41:00Z,26.6633,-91.5566,7.2,22.3,11111222
ATP,ioos:station:wmo:42869:1,2020-03-02T03:51:00Z,26.6631,-91.5567,7.2,22.3,11111222
ATP,ioos:station:wmo:42869:1,2020-03-02T04:01:00Z,26.6631,-91.5568,7.2,22.4,11111222
ATP,ioos:station:wmo:42869:1,2020-03-02T04:11:00Z,26.6633,-91.5568,7.0,22.4,11111222
ATP,ioos:station:wmo:42869:1,2020-03-02T04:21:00Z,26.6632,-91.5567,7.1,22.4,11111222
ATP,ioos:station:wmo:42869:1,2020-03-02T04:31:00Z,26.6629,-91.5584,7.1,22.4,11111222
ATP,ioos:station:wmo:42869:1,2020-03-02T04:41:00Z,26.6632,-91.5566,7.1,22.4,11111222
ATP,ioos:station:wmo:42869:1,2020-03-02T04:51:00Z,26.6632,-91.5568,7.1,22.4,11111222
ATP,ioos:station:wmo:42869:1,2020-03-02T05:01:00Z,26.6632,-91.5565,7.3,22.4,11111222
ATP,ioos:station:wmo:42869:1,2020-03-02T05:11:00Z,26.6632,-91.5570,7.2,22.4,11111222
ATP,ioos:station:wmo:42869:1,2020-03-02T05:21:00Z,26.6633,-91.5569,7.1,22.4,11111222
ATP,ioos:station:wmo:42869:1,2020-03-02T05:31:00Z,26.6633,-91.5568,7.2,22.4,11111222
ATP,ioos:station:wmo:42869:1,2020-03-02T05:41:00Z,26.6633,-91.5568,7.1,22.4,11111222
ATP,ioos:station:wmo:42869:1,2020-03-02T05:51:00Z,26.6632,-91.5569,7.1,22.4,11111222
ATP,ioos:station:wmo:42869:1,2020-03-02T06:01:00Z,26.6632,-91.5567,7.0,22.4,11111222
ATP,ioos:station:wmo:42869:1,2020-03-02T06:11:00Z,26.6633,-91.5568,7.3,22.4,11111222
ATP,ioos:station:wmo:42869:1,2020-03-02T06:21:00Z,26.6633,-91.5568,7.2,22.4,11111222
ATP,ioos:station:wmo:42869:1,2020-03-02T06:31:00Z,26.6633,-91.5568,7.2,22.4,11111222
ATP,ioos:station:wmo:42869:1,2020-03-02T06:41:00Z,26.6633,-91.5568,7.1,22.4,11111222
ATP,ioos:station:wmo:42869:1,2020-03-02T06:51:00Z,26.6632,-91.5569,7.1,22.4,11111222
ATP,ioos:station:wmo:42869:1,2020-03-02T07:01:00Z,26.6631,-91.5567,7.2,22.4,11111222
ATP,ioos:station:wmo:42869:1,2020-03-02T07:11:00Z,26.6632,-91.5566,7.2,22.4,11111222
ATP,ioos:station:wmo:42869:1,2020-03-02T07:21:00Z,26.6632,-91.5565,7.3,22.4,11111222
ATP,ioos:station:wmo:42869:1,2020-03-02T07:31:00Z,26.6631,-91.5565,7.1,22.4,11111222
ATP,ioos:station:wmo:42869:1,2020-03-02T07:41:00Z,26.6632,-91.5566,7.0,22.4,11111222
ATP,ioos:station:wmo:42869:1,2020-03-02T07:51:00Z,26.6632,-91.5568,7.1,22.4,11111222
ATP,ioos:station:wmo:42869:1,2020-03-02T08:01:00Z,26.6632,-91.5569,7.1,22.4,11111222
ATP,ioos:station:wmo:42869:1,2020-03-02T08:11:00Z,26.6630,-91.5570,7.2,22.4,11111222
ATP,ioos:station:wmo:42869:1,2020-03-02T08:21:00Z,26.6633,-91.5568,7.1,22.4,11111222
ATP,ioos:station:wmo:42869:1,2020-03-02T08:31:00Z,26.6632,-91.5566,7.3,22.4,11111222
ATP,ioos:station:wmo:42869:1,2020-03-02T08:41:00Z,26.6632,-91.5565,7.3,22.4,11111222
ATP,ioos:station:wmo:42869:1,2020-03-02T08:51:00Z,26.6632,-91.5567,7.0,22.4,11111222
ATP,ioos:station:wmo:42869:1,2020-03-02T09:01:00Z,26.6632,-91.5570,7.1,22.4,11111222
ATP,ioos:station:wmo:42869:1,2020-03-02T09:11:00Z,26.6631,-91.5570,7.2,22.4,11111222
ATP,ioos:station:wmo:42869:1,2020-03-02T09:21:00Z,26.6630,-91.5571,7.1,22.4,11111222
ATP,ioos:station:wmo:42869:1,2020-03-02T09:31:00Z,26.6628,-91.5573,7.2,22.4,11111222
ATP,ioos:station:wmo:42869:1,2020-03-02T09:41:00Z,26.6623,-91.5580,7.1,22.4,11111222
ATP,ioos:station:wmo:42869:1,2020-03-02T09:51:00Z,26.6627,-91.5569,7.1,22.4,11111222
ATP,ioos:station:wmo:42869:1,2020-03-02T10:01:00Z,26.6634,-91.5567,7.0,22.4,11111222
ATP,ioos:station:wmo:42869:1,2020-03-02T10:11:00Z,26.6632,-91.5569,7.2,22.4,11111222
ATP,ioos:station:wmo:42869:1,2020-03-02T10:21:00Z,26.6632,-91.5568,7.3,22.4,11111222
ATP,ioos:station:wmo:42869:1,2020-03-02T10:31:00Z,26.6632,-91.5569,7.2,22.4,11111222
ATP,ioos:station:wmo:42869:1,2020-03-02T10:41:00Z,26.6633,-91.5569,7.3,22.4,11111222
ATP,ioos:station:wmo:42869:1,2020-03-02T10:51:00Z,26.6632,-91.5568,7.0,22.4,11111222
ATP,ioos:station:wmo:42869:1,2020-03-02T11:01:00Z,26.6633,-91.5569,7.1,22.4,11111222
ATP,ioos:station:wmo:42869:1,2020-03-02T11:11:00Z,26.6632,-91.5567,7.1,22.4,11111222
ATP,ioos:station:wmo:42869:1,2020-03-02T11:21:00Z,26.6632,-91.5567,7.1,22.4,11111222
ATP,ioos:station:wmo:42869:1,2020-03-02T11:31:00Z,26.6632,-91.5568,7.1,22.4,11111222
ATP,ioos:station:wmo:42869:1,2020-03-02T11:41:00Z,26.6632,-91.5568,7.2,22.4,11111222
ATP,ioos:station:wmo:42869:1,2020-03-02T11:51:00Z,26.6633,-91.5567,7.1,22.4,11111222
ATP,ioos:station:wmo:42869:1,2020-03-02T12:01:00Z,26.6630,-91.5574,7.1,22.4,11111222
ATP,ioos:station:wmo:42869:1,2020-03-02T12:11:00Z,26.6632,-91.5570,7.2,22.4,11111222
ATP,ioos:station:wmo:42869:1,2020-03-02T12:21:00Z,26.6635,-91.5572,7.3,22.4,11111222
ATP,ioos:station:wmo:42869:1,2020-03-02T12:31:00Z,26.6631,-91.5572,7.2,22.4,11111222
ATP,ioos:station:wmo:42869:1,2020-03-02T12:41:00Z,26.6632,-91.5569,7.2,22.4,11111222
ATP,ioos:station:wmo:42869:1,2020-03-02T12:51:00Z,26.6633,-91.5568,7.1,22.4,11111222
ATP,ioos:station:wmo:42869:1,2020-03-02T13:01:00Z,26.6634,-91.5567,7.2,22.4,11111222
ATP,ioos:station:wmo:42869:1,2020-03-02T13:11:00Z,26.6633,-91.5568,7.0,22.4,11111222
ATP,ioos:station:wmo:42869:1,2020-03-02T13:21:00Z,26.6633,-91.5568,7.1,22.4,11111222
ATP,ioos:station:wmo:42869:1,2020-03-02T13:31:00Z,26.6632,-91.5568,7.2,22.4,11111222
ATP,ioos:station:wmo:42869:1,2020-03-02T13:41:00Z,26.6633,-91.5568,6.9,22.4,11111222
ATP,ioos:station:wmo:42869:1,2020-03-02T13:51:00Z,26.6632,-91.5567,7.2,22.4,11111222
ATP,ioos:station:wmo:42869:1,2020-03-02T14:01:00Z,26.6632,-91.5578,7.0,22.4,11111222
ATP,ioos:station:wmo:42869:1,2020-03-02T14:11:00Z,26.6630,-91.5561,7.1,22.4,11111222
ATP,ioos:station:wmo:42869:1,2020-03-02T14:21:00Z,26.6632,-91.5567,7.1,22.4,11111222
ATP,ioos:station:wmo:42869:1,2020-03-02T14:31:00Z,26.6632,-91.5567,7.3,22.4,11111222
ATP,ioos:station:wmo:42869:1,2020-03-02T14:41:00Z,26.6631,-91.5565,7.1,22.4,11111222
ATP,ioos:station:wmo:42869:1,2020-03-02T14:51:00Z,26.6632,-91.5571,7.0,22.4,11111222
ATP,ioos:station:wmo:42869:1,2020-03-02T15:01:00Z,26.6632,-91.5568,7.3,22.4,11111222
ATP,ioos:station:wmo:42869:1,2020-03-02T15:11:00Z,26.6631,-91.5566,7.1,22.4,11111222
ATP,ioos:station:wmo:42869:1,2020-03-02T15:21:00Z,26.6633,-91.5567,7.1,22.4,11111222
ATP,ioos:station:wmo:42869:1,2020-03-02T15:31:00Z,26.6632,-91.5565,7.1,22.4,11111222
ATP,ioos:station:wmo:42869:1,2020-03-02T15:41:00Z,26.6630,-91.5566,7.2,22.4,11111222
ATP,ioos:station:wmo:42869:1,2020-03-02T15:51:00Z,26.6631,-91.5567,7.1,22.4,11111222
ATP,ioos:station:wmo:42869:1,2020-03-02T16:01:00Z,26.6631,-91.5563,7.2,22.4,11111222
ATP,ioos:station:wmo:42869:1,2020-03-02T16:11:00Z,26.6632,-91.5565,7.1,22.4,11111222
ATP,ioos:station:wmo:42869:1,2020-03-02T16:21:00Z,26.6631,-91.5566,7.2,22.4,11111222
ATP,ioos:station:wmo:42869:1,2020-03-02T16:31:00Z,26.6632,-91.5568,7.0,22.4,11111222
ATP,ioos:station:wmo:42869:1,2020-03-02T16:41:00Z,26.6632,-91.5568,7.0,22.4,11111222
ATP,ioos:station:wmo:42869:1,2020-03-02T16:51:00Z,26.6633,-91.5569,7.1,22.5,11111222
ATP,ioos:station:wmo:42869:1,2020-03-02T17:01:00Z,26.6632,-91.5570,7.1,22.5,11111222
ATP,ioos:station:wmo:42869:1,2020-03-02T17:11:00Z,26.6633,-91.5570,7.1,22.5,11111222
ATP,ioos:station:wmo:42869:1,2020-03-02T17:31:00Z,26.6632,-91.5568,7.2,22.5,11111222
ATP,ioos:station:wmo:42869:1,2020-03-02T17:41:00Z,26.6633,-91.5568,7.2,22.5,11111222
ATP,ioos:station:wmo:42869:1,2020-03-02T17:51:00Z,26.6632,-91.5569,7.1,22.5,11111222
ATP,ioos:station:wmo:42869:1,2020-03-02T18:01:00Z,26.6632,-91.5569,7.2,22.5,11111222
ATP,ioos:station:wmo:42869:1,2020-03-02T18:11:00Z,26.6632,-91.5567,7.0,22.5,11111222
ATP,ioos:station:wmo:42869:1,2020-03-02T18:21:00Z,26.6632,-91.5567,7.1,22.5,11111222
ATP,ioos:station:wmo:42869:1,2020-03-02T18:31:00Z,26.6632,-91.5567,7.2,22.5,11111222
ATP,ioos:station:wmo:42869:1,2020-03-02T18:41:00Z,26.6632,-91.5566,7.2,22.5,11111222
ATP,ioos:station:wmo:42869:1,2020-03-02T18:51:00Z,26.6632,-91.5568,7.3,22.5,11111222
ATP,ioos:station:wmo:42869:1,2020-03-02T19:01:00Z,26.6632,-91.5568,7.2,22.5,11111222
ATP,ioos:station:wmo:42869:1,2020-03-02T19:11:00Z,26.6632,-91.5567,7.2,22.5,11111222
ATP,ioos:station:wmo:42869:1,2020-03-02T19:21:00Z,26.6632,-91.5567,7.2,22.6,11111222
ATP,ioos:station:wmo:42869:1,2020-03-02T19:31:00Z,26.6632,-91.5567,7.3,22.6,11111222
ATP,ioos:station:wmo:42869:1,2020-03-02T19:41:00Z,26.6633,-91.5569,7.2,22.6,11111222
ATP,ioos:station:wmo:42869:1,2020-03-02T19:51:00Z,26.6633,-91.5569,7.2,22.6,11111222
ATP,ioos:station:wmo:42869:1,2020-03-02T20:01:00Z,26.6632,-91.5569,7.3,22.6,11111222
ATP,ioos:station:wmo:42869:1,2020-03-02T20:11:00Z,26.6632,-91.5568,7.1,22.6,11111222
ATP,ioos:station:wmo:42869:1,2020-03-02T20:21:00Z,26.6633,-91.5568,7.1,22.6,11111222
ATP,ioos:station:wmo:42869:1,2020-03-02T20:31:00Z,26.6633,-91.5568,7.1,22.6,11111222
ATP,ioos:station:wmo:42869:1,2020-03-02T20:41:00Z,26.6632,-91.5568,7.1,22.6,11111222
ATP,ioos:station:wmo:42869:1,2020-03-02T20:51:00Z,26.6632,-91.5569,7.2,22.6,11111222
ATP,ioos:station:wmo:42869:1,2020-03-02T21:01:00Z,26.6632,-91.5570,7.3,22.6,11111222
ATP,ioos:station:wmo:42869:1,2020-03-02T21:11:00Z,26.6631,-91.5569,7.3,22.6,11111222
ATP,ioos:station:wmo:42869:1,2020-03-02T21:21:00Z,26.6632,-91.5569,7.3,22.6,11111222
ATP,ioos:station:wmo:42869:1,2020-03-02T21:31:00Z,26.6632,-91.5569,7.2,22.6,11111222
ATP,ioos:station:wmo:42869:1,2020-03-02T21:41:00Z,26.6633,-91.5568,7.2,22.7,11111222
ATP,ioos:station:wmo:42869:1,2020-03-02T21:51:00Z,26.6631,-91.5569,7.1,22.7,11111222
ATP,ioos:station:wmo:42869:1,2020-03-02T22:01:00Z,26.6630,-91.5570,7.2,22.7,11111222
ATP,ioos:station:wmo:42869:1,2020-03-02T22:11:00Z,26.6632,-91.5568,7.2,22.7,11111222
ATP,ioos:station:wmo:42869:1,2020-03-02T22:21:00Z,26.6632,-91.5568,7.1,22.7,11111222